Location: Brent Pelham
(51.9500°N, 0.0833°E)
Time: 13:26:09
(UTC+00:00)

Daily predictions for brighter satellites

Satellite Brightness Start Highest point End
(mag) Time Altitude Azimuth Time Altitude Azimuth Time Altitude Azimuth
Meteor 2-3 Rocket 4.1 16:23:16 10° NNW 16:28:55 74° W 16:34:34 10° S
Cosmos 2084 Rocket 3.6 16:25:16 10° NW 16:29:06 69° SW 16:32:52 10° SE
ISS -3.5 16:26:57 10° W 16:30:18 73° SSW 16:33:39 10° ESE
Cosmos 2279 Rocket 4.2 16:25:38 10° N 16:31:42 49° ENE 16:37:42 10° SSE
Aureole 3 Rocket 3.2 16:27:30 10° N 16:32:50 64° ENE 16:36:41 10° SSE
Meteor 1-27 4.3 16:28:56 10° S 16:34:28 59° E 16:39:58 10° NNE
Spot 4 Rocket 4.4 16:30:20 10° S 16:35:28 73° WSW 16:40:37 10° NNW
ATLAS CENTAUR R/B 2.2 16:33:23 10° WNW 16:36:46 60° NNE 16:43:06 10° ESE
Cosmos 2237 Rocket 3.7 16:32:17 10° NW 16:37:33 42° WSW 16:42:48 10° S
Cosmos 1606 2.5 16:34:18 10° S 16:37:55 75° E 16:41:35 10° NNE
Cosmos 2058 Rocket 3.9 16:35:57 10° SSE 16:39:52 31° E 16:43:47 10° NNE
Cosmos 405 Rocket 3.2 16:43:10 10° SSE 16:46:43 39° E 16:50:19 10° NNE
Cosmos 1140 Rocket 4.2 16:43:25 10° N 16:48:01 31° NE 16:52:34 10° ESE
Cosmos 2150 Rocket 4.0 16:43:10 10° SSW 16:48:20 86° ESE 16:53:36 10° NNE
USA 306 1.1 16:49:32 10° WNW 16:51:50 88° SSW 16:53:59 10° ESE
Cosmos 1606 Rocket 3.6 16:48:19 10° S 16:52:47 89° W 16:57:15 10° N
SJ-7 4.3 16:49:50 10° SSE 16:53:48 79° ENE 16:57:52 10° NNW
SMAP 3.1 16:50:02 10° SSE 16:54:36 60° ENE 16:59:12 10° N
Cosmos 1726 Rocket 3.5 16:50:29 10° S 16:54:55 75° E 16:59:22 10° NNE
Cosmos 1500 3.2 16:54:22 10° N 16:57:48 46° ENE 17:01:13 10° SSE
Cosmos 1825 Rocket 4.5 16:57:16 10° NNW 17:01:28 51° W 17:05:39 10° S
Cosmos 1437 Rocket 2.5 16:58:20 10° NNW 17:02:03 82° ENE 17:05:48 10° SSE
Cosmos-2242 4.3 16:59:14 10° SE 17:02:25 20° E 17:05:03 13° NE
CZ-2D R/B 3.5 16:59:10 10° S 17:02:50 70° WSW 17:06:31 10° NNW
SL-8 R/B 4.3 17:02:21 10° W 17:07:00 55° S 17:11:41 10° ESE
Cosmos 2082 Rocket 4.3 17:06:09 10° NNW 17:07:28 11° N 17:08:46 10° NNE
Cosmos 2263 Rocket 2.8 17:02:43 10° S 17:07:46 37° ESE 17:12:14 13° NE
RESURS DK-1 4.2 17:06:36 10° N 17:08:41 13° NNE 17:09:17 13° NE
Cosmos 2151 2.9 17:05:24 10° N 17:09:42 86° E 17:13:58 10° S
Tsikada Rocket 4.3 17:03:31 10° SSW 17:09:44 70° WNW 17:15:56 10° N
Cosmos 2227 Rocket 2.2 17:04:34 10° SSW 17:10:15 86° WNW 17:15:57 10° NNE
Cosmos 2298 Rocket 4.4 17:05:49 10° SW 17:11:06 65° WNW 17:16:26 10° NNE
CZ-2C R/B 3.0 17:10:01 10° S 17:13:32 66° WSW 17:17:08 10° NNW
Cosmos 1238 Rocket 3.5 17:11:49 10° SSW 17:15:26 46° WNW 17:18:36 10° N
CORIOLIS 4.1 17:12:36 10° SSE 17:17:58 90° N 17:23:23 10° NNW
Helios 1B rocket 3.7 17:14:43 10° S 17:18:29 43° W 17:22:16 10° NNW
Cosmos 1603 4.1 17:13:03 10° NNW 17:18:30 43° NE 17:23:52 10° ESE
YAOGAN 1 3.8 17:19:24 19° ENE 17:19:47 20° ENE 17:22:53 10° NNE
Cosmos 2251 Rocket 3.9 17:15:12 10° NNW 17:20:16 41° NE 17:25:20 10° SE
CZ-4B R/B 3.5 17:17:23 10° SSE 17:20:58 88° ENE 17:24:37 10° NNW
Cosmos 1812 3.7 17:18:37 10° SE 17:21:37 24° E 17:22:20 23° ENE
SL-16 R/B 4.3 17:18:32 10° N 17:23:43 28° NW 17:28:52 10° WSW
CZ-4B R/B 3.5 17:19:03 10° SE 17:24:02 58° ENE 17:28:54 10° N
Cosmos 407 Rocket 3.8 17:20:03 10° NNW 17:24:58 41° NE 17:29:49 10° SE
ATLAS 2AS CENTAUR R/B 3.2 17:19:01 10° NW 17:25:44 42° NNE 17:30:16 19° E
USA 305 2.5 17:22:08 10° WNW 17:25:57 88° NNE 17:28:37 19° ESE
Meteor 1-31 Rocket 2.8 17:26:32 10° S 17:30:13 75° WSW 17:33:57 10° NNW
Lacrosse 4 Rocket 1.5 17:26:14 10° NNW 17:30:33 54° NE 17:34:32 11° SE
Cosmos 724 4.5 17:24:57 10° SSW 17:31:02 62° SE 17:35:29 19° NE
SL-16 R/B 3.3 17:26:21 10° NW 17:31:49 48° WSW 17:37:13 10° S
Cosmos 1544 4.3 17:33:45 10° NNW 17:36:48 38° W 17:39:50 10° SSW
Cosmos 1076 Rocket 4.4 17:41:22 10° NNW 17:45:37 51° W 17:49:50 10° S
Cosmos 1943 3.1 17:40:19 10° NNW 17:45:59 80° ENE 17:51:39 10° SSE
Cosmos 1607 4.0 17:43:28 10° SW 17:49:50 89° NNW 17:54:20 21° NE
Cosmos 1812 Rocket 3.8 17:46:35 10° SSE 17:50:43 45° E 17:52:19 31° NE
Cosmos 1190 Rocket 4.3 17:48:51 10° NNW 17:53:56 43° NE 17:56:11 28° ESE
Radarsat Rocket 3.8 17:48:17 10° SSE 17:54:05 80° ENE 18:00:13 10° NNW
SL-08 R/B 3.8 17:54:03 34° E 17:54:20 35° E 17:58:33 10° SSE
Cosmos 1602 4.1 17:53:46 10° NNW 17:57:26 61° W 18:01:07 10° S
ADEOS 3.5 17:53:32 10° SSE 17:58:40 63° ENE 18:03:50 10° N
Cosmos 2297 Rocket 3.7 17:53:59 10° WSW 17:58:59 31° NW 18:03:49 11° NNE
Cosmos 2219 3.6 17:55:03 10° SW 18:00:35 61° NW 18:05:03 16° NNE
USA 307 3.2 17:57:46 10° WNW 18:01:33 52° SSW 18:03:12 29° SSE
Cosmos 1666 3.8 17:58:20 10° NNW 18:01:42 42° W 18:05:02 10° SSW
ADEOS Rocket 4.2 18:05:29 21° NNE 18:05:29 21° NNE 18:08:20 10° N
Meteor 1-25 Rocket 4.1 17:59:53 10° NNW 18:05:38 83° ENE 18:11:15 10° SSE
ISS -1.8 18:03:52 10° W 18:06:44 26° SSW 18:08:24 18° SSE
USA 234 3.3 18:03:40 31° ENE 18:07:03 68° SE 18:13:33 10° SW
Cosmos 1553 Rocket 4.3 18:02:02 10° N 18:08:01 40° ENE 18:10:27 29° ESE
BREEZE-M DEB (TANK) 3.1 18:09:53 10° WSW 18:10:54 25° SW 18:10:54 25° SW
COSMO-SKYMED 1 2.4 18:11:54 42° NNE 18:13:17 69° ESE 18:17:36 10° S
Cosmos 2344 3.7 18:06:17 10° SSW 18:13:27 49° ESE 18:16:08 35° ENE
Cosmos 2082 3.9 18:12:15 10° SW 18:17:51 69° NW 18:21:20 24° NNE
Helios 1A 3.3 18:20:32 24° N 18:22:54 65° WNW 18:27:01 10° SSW
Cosmos 2026 Rocket 3.9 18:17:07 10° S 18:23:15 64° E 18:29:32 10° NNE
Cosmos 1833 Rocket 4.1 18:18:59 10° NNW 18:22:32 23° NNE 18:22:32 23° NNE
Lacrosse 5 3.6 18:22:50 10° S 18:24:56 18° SSE 18:24:56 18° SSE
Cosmos 2195 Rocket 4.4 18:23:07 10° S 18:29:26 80° E 18:35:44 10° NNE
Cosmos 1140 Rocket 4.2 18:25:01 10° NNW 18:30:04 53° WSW 18:35:03 10° S
SME Rocket 4.2 18:27:17 10° SSE 18:32:52 81° ENE 18:41:38 10° NNW
CZ-4B R/B 2.9 18:34:39 79° N 18:34:39 79° N 18:38:39 10° NNW
Cosmos 1092 Rocket 3.8 18:30:26 10° S 18:36:33 79° E 18:42:43 10° NNE
Cosmos-2242 3.8 18:35:14 10° SSW 18:39:27 51° WNW 18:41:45 25° N
Nadezhda 4 Rocket 4.5 18:34:04 10° SSW 18:40:07 59° WNW 18:46:12 10° N
CZ-4B R/B 3.9 18:42:41 39° NNE 18:42:41 39° NNE 18:46:32 10° N
ATLAS CENTAUR R/B 3.8 18:37:15 10° WNW 18:41:40 44° SW 18:49:51 10° SSE
Meteor 1-5 Rocket 4.1 18:41:30 10° NNW 18:47:10 89° E 18:52:58 10° SSE
Cosmos 676 Rocket 4.2 18:41:54 10° NNW 18:46:18 55° NNE 18:46:18 55° NNE
RESURS DK-1 4.2 18:43:22 10° NNW 18:44:58 22° NNW 18:44:58 22° NNW
Cosmos 2227 4.1 18:43:35 10° SSW 18:49:21 87° ESE 18:50:09 68° NE
Cosmos 2263 Rocket 3.0 18:46:14 10° SW 18:51:36 48° NW 18:53:55 30° N
Cosmos 1844 Rocket 3.6 18:47:26 10° S 18:50:37 33° SSE 18:50:37 33° SSE
Cosmos 2082 Rocket 4.1 18:50:16 10° NNW 18:52:13 16° N 18:52:13 16° N
Cosmos 2227 Rocket 4.1 18:50:34 10° W 18:55:06 24° NW 18:58:05 16° N
YAOGAN 1 3.4 18:56:27 46° NW 18:56:27 46° NW 18:59:43 10° NNW
Cosmos 1812 4.3 18:53:20 10° SW 18:56:39 31° WNW 18:56:48 31° WNW
Lacrosse 4 Rocket 3.6 19:05:09 10° WNW 19:08:40 24° WSW 19:10:41 17° SSW
ATLAS 2AS CENTAUR R/B 2.6 19:10:16 10° NW 19:17:15 80° SW 19:17:44 75° S
Cosmos 1818 4.4 19:17:25 10° SW 19:21:04 44° SW 19:21:04 44° SW
USA 234 3.6 19:51:01 60° WNW 19:51:01 60° WNW 19:56:35 10° W
Cosmos 2344 4.2 20:20:36 10° WSW 20:26:10 46° WNW 20:26:10 46° WNW
